GW2511 Weather Reports


time (UTC)temp
C
wind
direction
speed
KPH
gust
KPH
rain 1hr
cm
rain 24hr
cm
rain mn
cm
humidity
%
barometer
mb
20260505041553 12 252 0.0 0.0 0.00 0.00 0.00 78 1008.0
20260505040051 13 83 0.0 4.8 0.00 0.00 0.00 64 1007.9
20260505034550 14 239 0.0 6.4 0.00 0.00 0.00 61 1007.4
20260505033050 13 236 0.0 1.6 0.00 0.00 0.00 69 1006.9
20260505031555 13 236 0.0 0.0 0.00 0.00 0.00 62 1006.5
20260505030050 15 235 0.0 1.6 0.00 0.00 0.00 58 1006.3
20260505024553 15 302 0.0 0.0 0.00 0.00 0.00 62 1006.2
20260505023048 15 302 0.0 0.0 0.00 0.00 0.00 56 1006.0
20260505021551 16 223 0.0 0.0 0.00 0.00 0.00 50 1005.9
20260505020052 17 150 0.0 6.4 0.00 0.00 0.00 43 1005.9
20260505014551 17 340 4.8 9.7 0.00 0.00 0.00 41 1005.8
20260505013045 18 57 1.6 9.7 0.00 0.00 0.00 41 1005.7
20260505011546 18 256 0.0 1.6 0.00 0.00 0.00 42 1005.6
20260505010058 19 63 3.2 11.3 0.00 0.00 0.00 37 1005.6
20260505004544 20 313 0.0 14.5 0.00 0.00 0.00 36 1005.6
20260505003044 20 260 0.0 8.0 0.00 0.00 0.00 34 1005.6
20260505001545 20 98 3.2 9.7 0.00 0.00 0.00 32 1005.7
20260505000046 20 321 1.6 9.7 0.00 0.00 0.00 29 1005.7
20260504234540 21 329 1.6 8.0 0.00 0.00 0.00 32 1005.6
20260504233059 21 338 1.6 11.3 0.00 0.00 0.00 30 1005.5
20260504231544 21 359 3.2 19.3 0.00 0.00 0.00 29 1005.6
20260504230050 21 329 3.2 9.7 0.00 0.00 0.00 30 1005.7
20260504224540 21 288 3.2 20.9 0.00 0.00 0.00 30 1005.6
20260504223038 21 304 1.6 11.3 0.00 0.00 0.00 30 1005.6
20260504221536 21 208 3.2 14.5 0.00 0.00 0.00 29 1005.7
20260504220036 21 46 1.6 9.7 0.00 0.00 0.00 30 1006.0
20260504214534 22 77 4.8 14.5 0.00 0.00 0.00 29 1006.0
20260504213034 22 25 1.6 14.5 0.00 0.00 0.00 27 1006.1
20260504211537 22 15 4.8 14.5 0.00 0.00 0.00 27 1006.2
20260504210035 22 150 1.6 12.9 0.00 0.00 0.00 27 1006.3
20260504204533 22 115 1.6 11.3 0.00 0.00 0.00 28 1006.3
20260504203048 22 127 1.6 11.3 0.00 0.00 0.00 28 1006.4
20260504201525 21 190 1.6 11.3 0.00 0.00 0.00 29 1006.3
20260504200025 21 93 3.2 11.3 0.00 0.00 0.00 28 1006.7
20260504194522 21 26 3.2 11.3 0.00 0.00 0.00 30 1006.7
20260504193022 21 56 3.2 20.9 0.00 0.00 0.00 29 1006.9
20260504191523 21 70 3.2 16.1 0.00 0.00 0.00 29 1007.0
20260504190016 21 73 3.2 9.7 0.00 0.00 0.00 27 1007.3
20260504184513 20 224 3.2 11.3 0.00 0.00 0.00 29 1007.4
20260504183011 20 283 1.6 11.3 0.00 0.00 0.00 28 1007.6
20260504181508 20 248 0.0 4.8 0.00 0.00 0.00 31 1007.6
20260504180007 20 116 0.0 4.8 0.00 0.00 0.00 33 1007.8
20260504174609 18 207 1.6 8.0 0.00 0.00 0.00 34 1008.0
20260504173100 18 102 0.0 4.8 0.00 0.00 0.00 39 1008.2
20260504171553 17 333 0.0 4.8 0.00 0.00 0.00 46 1008.3
20260504081528 1 314 0.0 0.0 0.00 0.00 0.00 92 1010.7
20260504050008 5 314 0.0 0.0 0.00 0.00 0.00 88 1010.7
20260504044509 6 314 0.0 0.0 0.00 0.00 0.00 87 1010.7
20260504043005 6 314 0.0 0.0 0.00 0.00 0.00 86 1010.6